When you browse on this site, cookies collect data to enhance your experience and personalize the content and advertising you see.
Visit our Privacy Policy to learn more. By continuing to use the site, you agree to this use of cookies and data.
EN

Hourly Weather Caldas da Rainha

Today, 11 August, Tuesday

Time Temperature Precipitation Wind Pressure Humidity
00:00 +18°C° 0 mm 3 mps 752 mmHg 94%
01:00 +18°C° 0 mm 3 mps 752 mmHg 93%
02:00 +19°C° 0 mm 3 mps 752 mmHg 92%
03:00 +19°C° 0 mm 3 mps 752 mmHg 92%
04:00 +19°C° 0 mm 2 mps 752 mmHg 91%
05:00 +19°C° 0 mm 2 mps 752 mmHg 91%
06:00 +20°C° 0 mm 2 mps 752 mmHg 84%
07:00 +21°C° 0 mm 2 mps 752 mmHg 77%
08:00 +24°C° 0 mm 2 mps 752 mmHg 70%
09:00 +25°C° 0 mm 2 mps 753 mmHg 65%
10:00 +26°C° 0 mm 3 mps 753 mmHg 59%
11:00 +27°C° 0 mm 3 mps 753 mmHg 54%
12:00 +27°C° 0 mm 3 mps 752 mmHg 56%
13:00 +27°C° 0 mm 4 mps 752 mmHg 57%
14:00 +27°C° 0 mm 5 mps 752 mmHg 59%
15:00 +26°C° 0 mm 5 mps 752 mmHg 65%
16:00 +25°C° 0 mm 5 mps 752 mmHg 70%
17:00 +22°C° 0 mm 5 mps 752 mmHg 76%
18:00 +21°C° 0 mm 5 mps 753 mmHg 81%
19:00 +21°C° 0 mm 5 mps 753 mmHg 87%
20:00 +20°C° 0 mm 5 mps 754 mmHg 93%
21:00 +20°C° 0 mm 5 mps 754 mmHg 92%
22:00 +20°C° 0 mm 5 mps 754 mmHg 91%
23:00 +20°C° 0 mm 4 mps 754 mmHg 91%

Tomorrow, 12 August, Wednesday

Time Temperature Precipitation Wind Pressure Humidity
00:00 +20°C° 0 mm 4 mps 754 mmHg 91%
01:00 +20°C° 0 mm 4 mps 754 mmHg 91%
02:00 +19°C° 0 mm 4 mps 754 mmHg 92%
03:00 +20°C° 0.1 mm 3 mps 754 mmHg 93%
04:00 +20°C° 0.1 mm 3 mps 754 mmHg 94%
05:00 +20°C° 0.1 mm 3 mps 754 mmHg 94%
06:00 +20°C° 0.1 mm 3 mps 754 mmHg 92%
07:00 +21°C° 0.1 mm 3 mps 755 mmHg 89%
08:00 +21°C° 0.1 mm 3 mps 755 mmHg 86%
09:00 +22°C° 0.1 mm 4 mps 755 mmHg 80%
10:00 +23°C° 0.1 mm 4 mps 755 mmHg 74%
11:00 +25°C° 0.1 mm 4 mps 755 mmHg 68%
12:00 +25°C° 0 mm 5 mps 755 mmHg 68%
13:00 +25°C° 0 mm 5 mps 755 mmHg 67%
14:00 +24°C° 0 mm 6 mps 755 mmHg 67%
15:00 +23°C° 0 mm 6 mps 755 mmHg 71%
16:00 +22°C° 0 mm 6 mps 755 mmHg 74%
17:00 +21°C° 0 mm 6 mps 755 mmHg 78%
18:00 +20°C° 0 mm 6 mps 755 mmHg 83%
19:00 +19°C° 0 mm 5 mps 756 mmHg 88%
20:00 +17°C° 0 mm 5 mps 756 mmHg 93%
21:00 +17°C° 0 mm 5 mps 756 mmHg 93%
22:00 +17°C° 0 mm 5 mps 756 mmHg 94%
23:00 +16°C° 0 mm 5 mps 756 mmHg 95%

Day after tomorrow, 13 August, Thursday

Time Temperature Precipitation Wind Pressure Humidity
00:00 +16°C° 0 mm 5 mps 756 mmHg 95%
01:00 +16°C° 0 mm 5 mps 756 mmHg 95%
02:00 +16°C° 0 mm 5 mps 756 mmHg 95%
03:00 +16°C° 0 mm 5 mps 756 mmHg 95%
04:00 +16°C° 0 mm 5 mps 756 mmHg 94%
05:00 +16°C° 0 mm 5 mps 756 mmHg 94%
06:00 +19°C° 0 mm 5 mps 756 mmHg 82%
07:00 +21°C° 0 mm 6 mps 757 mmHg 71%
08:00 +23°C° 0 mm 6 mps 757 mmHg 60%
09:00 +24°C° 0 mm 6 mps 757 mmHg 55%
10:00 +26°C° 0 mm 6 mps 757 mmHg 50%
11:00 +27°C° 0 mm 6 mps 757 mmHg 45%
12:00 +27°C° 0 mm 6 mps 756 mmHg 46%
13:00 +27°C° 0 mm 6 mps 756 mmHg 47%
14:00 +27°C° 0 mm 6 mps 756 mmHg 48%
15:00 +24°C° 0 mm 6 mps 756 mmHg 54%
16:00 +23°C° 0 mm 6 mps 756 mmHg 60%
17:00 +22°C° 0 mm 6 mps 756 mmHg 67%
18:00 +21°C° 0 mm 5 mps 757 mmHg 76%
19:00 +19°C° 0 mm 4 mps 757 mmHg 86%
20:00 +18°C° 0 mm 4 mps 757 mmHg 95%
21:00 +17°C° 0 mm 3 mps 757 mmHg 96%
22:00 +17°C° 0 mm 3 mps 757 mmHg 96%
23:00 +17°C° 0 mm 3 mps 757 mmHg 97%

14 August, Friday

Time Temperature Precipitation Wind Pressure Humidity
00:00 +17°C° 0 mm 3 mps 757 mmHg 97%
01:00 +17°C° 0 mm 3 mps 757 mmHg 96%
02:00 +16°C° 0 mm 3 mps 756 mmHg 96%
03:00 +16°C° 0 mm 3 mps 756 mmHg 96%
04:00 +16°C° 0 mm 3 mps 756 mmHg 96%
05:00 +16°C° 0 mm 3 mps 756 mmHg 96%
06:00 +18°C° 0 mm 3 mps 756 mmHg 85%
07:00 +20°C° 0 mm 3 mps 756 mmHg 73%
08:00 +22°C° 0 mm 4 mps 756 mmHg 62%
09:00 +25°C° 0 mm 4 mps 756 mmHg 58%
10:00 +26°C° 0 mm 4 mps 756 mmHg 54%
11:00 +27°C° 0 mm 5 mps 756 mmHg 50%
12:00 +26°C° 0 mm 5 mps 756 mmHg 52%
13:00 +26°C° 0 mm 5 mps 756 mmHg 54%
14:00 +26°C° 0 mm 5 mps 756 mmHg 56%
15:00 +25°C° 0 mm 5 mps 756 mmHg 60%
16:00 +23°C° 0 mm 5 mps 756 mmHg 64%
17:00 +22°C° 0 mm 4 mps 756 mmHg 68%
18:00 +20°C° 0 mm 4 mps 756 mmHg 77%
19:00 +18°C° 0 mm 3 mps 757 mmHg 86%
20:00 +17°C° 0 mm 3 mps 757 mmHg 95%
21:00 +17°C° 0 mm 3 mps 757 mmHg 95%
22:00 +17°C° 0 mm 3 mps 757 mmHg 96%
23:00 +17°C° 0 mm 3 mps 757 mmHg 96%

15 August, Saturday

Time Temperature Precipitation Wind Pressure Humidity
00:00 +17°C° 0 mm 3 mps 756 mmHg 96%
01:00 +16°C° 0 mm 3 mps 756 mmHg 97%
02:00 +16°C° 0 mm 2 mps 756 mmHg 97%
03:00 +16°C° 0 mm 2 mps 756 mmHg 97%
04:00 +16°C° 0 mm 2 mps 756 mmHg 97%
05:00 +16°C° 0 mm 2 mps 756 mmHg 97%
06:00 +18°C° 0 mm 2 mps 756 mmHg 87%
07:00 +20°C° 0 mm 3 mps 756 mmHg 77%
08:00 +22°C° 0 mm 3 mps 756 mmHg 66%
09:00 +24°C° 0 mm 3 mps 756 mmHg 60%
10:00 +25°C° 0 mm 4 mps 756 mmHg 54%
11:00 +26°C° 0 mm 4 mps 756 mmHg 47%
12:00 +26°C° 0 mm 4 mps 756 mmHg 49%
13:00 +26°C° 0 mm 4 mps 756 mmHg 50%
14:00 +26°C° 0 mm 5 mps 756 mmHg 51%
15:00 +25°C° 0 mm 5 mps 756 mmHg 55%
16:00 +23°C° 0 mm 5 mps 756 mmHg 60%
17:00 +22°C° 0 mm 5 mps 756 mmHg 64%
18:00 +20°C° 0 mm 4 mps 756 mmHg 74%
19:00 +19°C° 0 mm 4 mps 756 mmHg 85%
20:00 +17°C° 0 mm 4 mps 757 mmHg 96%
21:00 +17°C° 0 mm 3 mps 757 mmHg 96%
22:00 +17°C° 0 mm 3 mps 757 mmHg 96%
23:00 +17°C° 0 mm 3 mps 757 mmHg 96%

16 August, Sunday

Time Temperature Precipitation Wind Pressure Humidity
00:00 +17°C° 0 mm 3 mps 756 mmHg 97%
01:00 +16°C° 0 mm 3 mps 756 mmHg 97%
02:00 +16°C° 0 mm 3 mps 756 mmHg 97%
03:00 +16°C° 0 mm 3 mps 756 mmHg 97%
04:00 +16°C° 0 mm 3 mps 756 mmHg 97%
05:00 +16°C° 0 mm 3 mps 756 mmHg 97%
06:00 +18°C° 0 mm 3 mps 756 mmHg 86%
07:00 +20°C° 0 mm 3 mps 757 mmHg 74%
08:00 +22°C° 0 mm 4 mps 757 mmHg 63%
09:00 +23°C° 0 mm 4 mps 757 mmHg 59%
10:00 +25°C° 0 mm 4 mps 757 mmHg 54%
11:00 +26°C° 0 mm 4 mps 757 mmHg 50%
12:00 +26°C° 0 mm 4 mps 757 mmHg 49%
13:00 +25°C° 0 mm 5 mps 756 mmHg 48%
14:00 +25°C° 0 mm 5 mps 756 mmHg 47%
15:00 +23°C° 0 mm 5 mps 756 mmHg 53%
16:00 +22°C° 0 mm 5 mps 756 mmHg 58%
17:00 +21°C° 0 mm 5 mps 756 mmHg 64%
18:00 +20°C° 0 mm 5 mps 757 mmHg 74%
19:00 +19°C° 0 mm 4 mps 757 mmHg 83%
20:00 +17°C° 0 mm 4 mps 757 mmHg 93%
21:00 +17°C° 0 mm 4 mps 757 mmHg 94%
22:00 +17°C° 0 mm 4 mps 757 mmHg 95%
23:00 +17°C° 0 mm 3 mps 757 mmHg 95%
Show more